sat.trackr.live / text

‹ back to catalog

STARLINK-34714

NORAD 64939 · 2025-158H

PAYLOAD ACTIVE UNKNOWN

§ Identity

Operator
Country
US
Launch date
2025-07-27
Launch site
AFWTR
Launch vehicle
Mass (kg)
RCS (m²)

Purposes: comms

External: N2YO · Heavens-Above · Gunter

§ Orbital elements

Epoch: 2026-05-25T03:17:09.763584Z

Period
95.64 min
Inclination
97.4509°
Eccentricity
0.0001867
Mean motion
15.05650625 rev/d
Perigee alt
548.2 km
Apogee alt
550.8 km
Semi-major
6,927.6 km
B*
8.6514e-4
RAAN
9.1348°
Arg perigee
89.4748°
Mean anomaly
270.6694°
Rev number
4,670

§ Raw data

STARLINK-347141 64939U 25158H   26145.13691856  .00012446  00000+0  86514-3 0  99922 64939  97.4509   9.1348 0001867  89.4748 270.6694 15.05650625 46700

JSON: /api/v1/satellites/64939 · /tle

For live sub-satellite position, see the globe view (requires WebGL).

§ Visibility from observer

Set your observer location to see the next 7 days of passes ≥ 10°. The values pass through the URL so the page stays shareable.

No JS? Fill the form by hand. The geolocation button needs JavaScript.